Doylestown, PA

1:06 AM EST on December 16, 2019 (GMT -0500)
Doylestown

Weather History for KDYL - October, 2019

Change the Weather History Date:

Tuesday, October 15, 2019

  Actual Average (WUND) Record (WUND)
Temperature  
Mean Temperature 55 °F -  
Max Temperature 68 °F - - (-1)
Min Temperature 44 °F - - (-1)
Degree Days  
Heating Degree Days 10    
Growing Degree Days 5 (Base 50)    
Moisture  
Dew Point 40 °F    
Average Humidity 59    
Maximum Humidity 83    
Minimum Humidity 33    
Precipitation  
Precipitation 0.00 in - - ()
Sea Level Pressure  
Sea Level Pressure 30.11 in    
Wind  
Wind Speed 3 mph (NNE)    
Max Wind Speed 6 mph    
Max Gust Speed -    
Visibility 10 miles    
Events      
Averages and records for this station are not official NWS values.
T = Trace of Precipitation, MM = Missing Value Source: NWS Daily Summary

Daily Weather History Graph

Daily Weather History Graph

Search for Another Location

Airport or City:

Astronomy

Oct. 15, 2019 Rise Set
Actual Time 7:11 AM EDT 6:20 PM EDT
Civil Twilight 6:43 AM EDT 6:48 PM EDT
Nautical Twilight 6:12 AM EDT 7:19 PM EDT
Astronomical Twilight 5:40 AM EDT 7:51 PM EDT
Moon 7:39 PM EDT (10/15) 8:39 AM EDT (10/15)
Length of Visible Light 12h 04m
Length of Day
11h 09m
Full, 97% of the Moon is Illuminated
Oct 15
Full
Oct 21
Last Quarter
Oct 27
New
Nov 4
First Quarter
Nov 12
Full

Hourly Weather History & Observations

Time (EDT) Temp. Windchill Dew Point Humidity Pressure Visibility Wind Dir Wind Speed Gust Speed Precip Events Conditions
12:54 AM 54.0 °F - 39.0 °F 57% 30.07 in 10.0 mi North 4.6 mph - N/A   Clear
1:54 AM 52.0 °F - 39.9 °F 63% 30.09 in 10.0 mi NE 3.5 mph - N/A   Clear
2:54 AM 50.0 °F - 39.9 °F 68% 30.10 in 10.0 mi NE 4.6 mph - N/A   Clear
3:54 AM 48.0 °F - 39.9 °F 74% 30.11 in 10.0 mi NE 3.5 mph - N/A   Clear
4:54 AM 48.0 °F - 39.0 °F 71% 30.12 in 10.0 mi Variable 3.5 mph - N/A   Clear
5:54 AM 45.0 °F 42.6 °F 37.9 °F 76% 30.14 in 10.0 mi NNE 4.6 mph - N/A   Clear
6:54 AM 45.0 °F - 37.9 °F 76% 30.16 in 10.0 mi Calm Calm - N/A   Clear
7:54 AM 44.1 °F - 37.9 °F 79% 30.18 in 10.0 mi Calm Calm - N/A   Clear
8:54 AM 51.1 °F - 39.9 °F 66% 30.19 in 10.0 mi Calm Calm - N/A   Clear
9:54 AM 59.0 °F - 39.0 °F 48% 30.19 in 10.0 mi Variable 3.5 mph - N/A   Clear
10:54 AM 61.0 °F - 37.9 °F 42% 30.19 in 10.0 mi Variable 4.6 mph - N/A   Clear
11:54 AM 62.1 °F - 39.0 °F 43% 30.17 in 10.0 mi Variable 3.5 mph - N/A   Clear
12:54 PM 66.9 °F - 39.0 °F 36% 30.14 in 10.0 mi NNE 5.8 mph - N/A   Clear
1:54 PM 64.9 °F - 39.0 °F 39% 30.13 in 10.0 mi SSW 4.6 mph - N/A   Clear
2:54 PM 64.0 °F - 37.9 °F 38% 30.11 in 10.0 mi Calm Calm - N/A   Clear
3:54 PM 66.9 °F - 37.0 °F 33% 30.09 in 10.0 mi West 3.5 mph - N/A   Clear
4:54 PM 66.0 °F - 36.0 °F 33% 30.08 in 10.0 mi Calm Calm - N/A   Clear
5:54 PM 62.1 °F - 39.0 °F 43% 30.06 in 10.0 mi Calm Calm - N/A   Clear
6:54 PM 55.0 °F - 42.1 °F 62% 30.08 in 10.0 mi Calm Calm - N/A   Clear
7:54 PM 52.0 °F - 42.1 °F 69% 30.08 in 10.0 mi Calm Calm - N/A   Clear
8:54 PM 55.0 °F - 42.1 °F 62% 30.07 in 10.0 mi Variable 3.5 mph - N/A   Clear
9:54 PM 54.0 °F - 45.0 °F 72% 30.07 in 10.0 mi SE 4.6 mph - N/A   Clear
10:54 PM 52.0 °F - 45.0 °F 77% 30.06 in 10.0 mi Calm Calm - N/A   Clear
11:54 PM 50.0 °F - 45.0 °F 83% 30.05 in 10.0 mi Variable 3.5 mph - N/A   Clear